Year,Month,Day,Hour,Minute,Value (Times are PST for temperature in C)
2010,08,13,00,00,14.80
2010,08,13,00,01,14.80
2010,08,13,00,02,14.80
2010,08,13,00,03,14.80
2010,08,13,00,04,14.80
2010,08,13,00,05,14.80
2010,08,13,00,06,14.70
2010,08,13,00,07,14.70
2010,08,13,00,08,14.70
2010,08,13,00,09,14.70
2010,08,13,00,10,14.70
2010,08,13,00,11,14.70
2010,08,13,00,12,14.70
2010,08,13,00,13,14.70
2010,08,13,00,14,14.70
2010,08,13,00,15,14.70
2010,08,13,00,16,14.70
2010,08,13,00,17,14.70
2010,08,13,00,18,14.60
2010,08,13,00,19,14.60
2010,08,13,00,20,14.60
2010,08,13,00,21,14.60
2010,08,13,00,22,14.60
2010,08,13,00,23,14.60
2010,08,13,00,24,14.60
2010,08,13,00,25,14.50
2010,08,13,00,26,14.50
2010,08,13,00,27,14.50
2010,08,13,00,28,14.50
2010,08,13,00,29,14.50
2010,08,13,00,30,14.40
2010,08,13,00,31,14.40
2010,08,13,00,32,14.40
2010,08,13,00,33,14.40
2010,08,13,00,34,14.40
2010,08,13,00,35,14.40
2010,08,13,00,36,14.40
2010,08,13,00,37,14.40
2010,08,13,00,38,14.40
2010,08,13,00,39,14.40
2010,08,13,00,40,14.40
2010,08,13,00,41,14.30
2010,08,13,00,42,14.30
2010,08,13,00,43,14.30
2010,08,13,00,44,14.30
2010,08,13,00,45,14.30
2010,08,13,00,46,14.30
2010,08,13,00,47,14.30
2010,08,13,00,48,14.30
2010,08,13,00,49,14.30
2010,08,13,00,50,14.30
2010,08,13,00,51,14.40
2010,08,13,00,52,14.40
2010,08,13,00,53,14.40
2010,08,13,00,54,14.40
2010,08,13,00,55,14.40
2010,08,13,00,56,14.40
2010,08,13,00,57,14.40
2010,08,13,00,58,14.40
2010,08,13,00,59,14.40
2010,08,13,01,00,14.40
2010,08,13,01,01,14.50
2010,08,13,01,02,14.50
2010,08,13,01,03,14.50
2010,08,13,01,04,14.50
2010,08,13,01,05,14.50
2010,08,13,01,06,14.60
2010,08,13,01,07,14.60
2010,08,13,01,08,14.50
2010,08,13,01,09,14.50
2010,08,13,01,10,14.50
2010,08,13,01,11,14.50
2010,08,13,01,12,14.50
2010,08,13,01,13,14.50
2010,08,13,01,14,14.50
2010,08,13,01,15,14.50
2010,08,13,01,16,14.50
2010,08,13,01,17,14.50
2010,08,13,01,18,14.50
2010,08,13,01,19,14.50
2010,08,13,01,20,14.60
2010,08,13,01,21,14.60
2010,08,13,01,22,14.60
2010,08,13,01,23,14.60
2010,08,13,01,24,14.60
2010,08,13,01,25,14.60
2010,08,13,01,26,14.60
2010,08,13,01,27,14.60
2010,08,13,01,28,14.60
2010,08,13,01,29,14.60
2010,08,13,01,30,14.60
2010,08,13,01,31,14.60
2010,08,13,01,32,14.60
2010,08,13,01,33,14.50
2010,08,13,01,34,14.50
2010,08,13,01,35,14.50
2010,08,13,01,36,14.50
2010,08,13,01,37,14.50
2010,08,13,01,38,14.50
2010,08,13,01,39,14.50
2010,08,13,01,40,14.50
2010,08,13,01,41,14.50
2010,08,13,01,42,14.40
2010,08,13,01,43,14.40
2010,08,13,01,44,14.40
2010,08,13,01,45,14.40
2010,08,13,01,46,14.40
2010,08,13,01,47,14.40
2010,08,13,01,48,14.40
2010,08,13,01,49,14.40
2010,08,13,01,50,14.40
2010,08,13,01,51,14.40
2010,08,13,01,52,14.40
2010,08,13,01,53,14.40
2010,08,13,01,54,14.30
2010,08,13,01,55,14.30
2010,08,13,01,56,14.30
2010,08,13,01,57,14.30
2010,08,13,01,58,14.30
2010,08,13,01,59,14.30
2010,08,13,02,00,14.30
2010,08,13,02,01,14.30
2010,08,13,02,02,14.30
2010,08,13,02,03,14.30
2010,08,13,02,04,14.30
2010,08,13,02,05,14.30
2010,08,13,02,06,14.30
2010,08,13,02,07,14.30
2010,08,13,02,08,14.20
2010,08,13,02,09,14.20
2010,08,13,02,10,14.20
2010,08,13,02,11,14.20
2010,08,13,02,12,14.20
2010,08,13,02,13,14.20
2010,08,13,02,14,14.20
2010,08,13,02,15,14.20
2010,08,13,02,16,14.10
2010,08,13,02,17,14.10
2010,08,13,02,18,14.10
2010,08,13,02,19,14.10
2010,08,13,02,20,14.10
2010,08,13,02,21,14.10
2010,08,13,02,22,14.10
2010,08,13,02,23,14.10
2010,08,13,02,24,14.00
2010,08,13,02,25,14.00
2010,08,13,02,26,14.00
2010,08,13,02,27,14.00
2010,08,13,02,28,14.00
2010,08,13,02,29,14.00
2010,08,13,02,30,14.00
2010,08,13,02,31,14.00
2010,08,13,02,32,14.00
2010,08,13,02,33,13.90
2010,08,13,02,34,13.90
2010,08,13,02,35,13.90
2010,08,13,02,36,13.90
2010,08,13,02,37,13.90
2010,08,13,02,38,13.90
2010,08,13,02,39,13.90
2010,08,13,02,40,13.90
2010,08,13,02,41,13.90
2010,08,13,02,42,13.90
2010,08,13,02,43,13.90
2010,08,13,02,44,13.90
2010,08,13,02,45,13.90
2010,08,13,02,46,13.90
2010,08,13,02,47,13.90
2010,08,13,02,48,13.80
2010,08,13,02,49,13.80
2010,08,13,02,50,13.80
2010,08,13,02,51,13.80
2010,08,13,02,52,13.80
2010,08,13,02,53,13.80
2010,08,13,02,54,13.80
2010,08,13,02,55,13.80
2010,08,13,02,56,13.80
2010,08,13,02,57,13.80
2010,08,13,02,58,13.70
2010,08,13,02,59,13.70
2010,08,13,03,00,13.70
2010,08,13,03,01,13.70
2010,08,13,03,02,13.70
2010,08,13,03,03,13.70
2010,08,13,03,04,13.70
2010,08,13,03,05,13.70
2010,08,13,03,06,13.70
2010,08,13,03,07,13.70
2010,08,13,03,08,13.70
2010,08,13,03,09,13.80
2010,08,13,03,10,13.80
2010,08,13,03,11,13.80
2010,08,13,03,12,13.80
2010,08,13,03,13,13.80
2010,08,13,03,14,13.70
2010,08,13,03,15,13.70
2010,08,13,03,16,13.70
2010,08,13,03,17,13.70
2010,08,13,03,18,13.70
2010,08,13,03,19,13.70
2010,08,13,03,20,13.70
2010,08,13,03,21,13.70
2010,08,13,03,22,13.70
2010,08,13,03,23,13.70
2010,08,13,03,24,13.70
2010,08,13,03,25,13.70
2010,08,13,03,26,13.70
2010,08,13,03,27,13.70
2010,08,13,03,28,13.70
2010,08,13,03,29,13.70
2010,08,13,03,30,13.70
2010,08,13,03,31,13.70
2010,08,13,03,32,13.70
2010,08,13,03,33,13.60
2010,08,13,03,34,13.60
2010,08,13,03,35,13.60
2010,08,13,03,36,13.60
2010,08,13,03,37,13.60
2010,08,13,03,38,13.60
2010,08,13,03,39,13.60
2010,08,13,03,40,13.60
2010,08,13,03,41,13.60
2010,08,13,03,42,13.60
2010,08,13,03,43,13.60
2010,08,13,03,44,13.60
2010,08,13,03,45,13.60
2010,08,13,03,49,13.50
2010,08,13,03,50,13.50
2010,08,13,03,51,13.50
2010,08,13,03,52,13.50
2010,08,13,03,53,13.50
2010,08,13,03,54,13.40
2010,08,13,03,55,13.40
2010,08,13,03,56,13.40
2010,08,13,03,57,13.40
2010,08,13,03,58,13.40
2010,08,13,03,59,13.40
2010,08,13,04,00,13.40
2010,08,13,04,01,13.40
2010,08,13,04,02,13.40
2010,08,13,04,03,13.40
2010,08,13,04,04,13.40
2010,08,13,04,05,13.40
2010,08,13,04,06,13.40
2010,08,13,04,07,13.40
2010,08,13,04,08,13.40
2010,08,13,04,09,13.40
2010,08,13,04,10,13.40
2010,08,13,04,11,13.30
2010,08,13,04,12,13.30
2010,08,13,04,13,13.30
2010,08,13,04,14,13.30
2010,08,13,04,15,13.30
2010,08,13,04,16,13.30
2010,08,13,04,17,13.30
2010,08,13,04,18,13.30
2010,08,13,04,19,13.40
2010,08,13,04,20,13.30
2010,08,13,04,21,13.30
2010,08,13,04,22,13.30
2010,08,13,04,23,13.30
2010,08,13,04,24,13.30
2010,08,13,04,25,13.30
2010,08,13,04,26,13.30
2010,08,13,04,27,13.30
2010,08,13,04,28,13.30
2010,08,13,04,29,13.30
2010,08,13,04,30,13.30
2010,08,13,04,31,13.20
2010,08,13,04,32,13.20
2010,08,13,04,33,13.20
2010,08,13,04,34,13.20
2010,08,13,04,35,13.20
2010,08,13,04,36,13.20
2010,08,13,04,37,13.20
2010,08,13,04,38,13.20
2010,08,13,04,39,13.10
2010,08,13,04,40,13.10
2010,08,13,04,41,13.10
2010,08,13,04,42,13.10
2010,08,13,04,43,13.10
2010,08,13,04,44,13.10
2010,08,13,04,45,13.10
2010,08,13,04,46,13.10
2010,08,13,04,47,13.10
2010,08,13,04,48,13.10
2010,08,13,04,49,13.10
2010,08,13,04,50,13.10
2010,08,13,04,51,13.10
2010,08,13,04,52,13.10
2010,08,13,04,53,13.10
2010,08,13,04,54,13.10
2010,08,13,04,55,13.10
2010,08,13,04,56,13.10
2010,08,13,04,57,13.10
2010,08,13,04,58,13.10
2010,08,13,04,59,13.10
2010,08,13,05,00,13.10
2010,08,13,05,01,13.10
2010,08,13,05,02,13.10
2010,08,13,05,03,13.10
2010,08,13,05,04,13.10
2010,08,13,05,05,13.10
2010,08,13,05,06,13.10
2010,08,13,05,07,13.10
2010,08,13,05,08,13.10
2010,08,13,05,09,13.10
2010,08,13,05,10,13.10
2010,08,13,05,11,13.10
2010,08,13,05,12,13.10
2010,08,13,05,13,13.10
2010,08,13,05,14,13.10
2010,08,13,05,15,13.10
2010,08,13,05,16,13.10
2010,08,13,05,17,13.10
2010,08,13,05,18,13.10
2010,08,13,05,19,13.10
2010,08,13,05,20,13.10
2010,08,13,05,21,13.10
2010,08,13,05,22,13.10
2010,08,13,05,23,13.10
2010,08,13,05,24,13.10
2010,08,13,05,25,13.10
2010,08,13,05,26,13.00
2010,08,13,05,27,13.00
2010,08,13,05,28,13.00
2010,08,13,05,29,13.00
2010,08,13,05,30,13.00
2010,08,13,05,31,13.00
2010,08,13,05,32,13.00
2010,08,13,05,33,12.90
2010,08,13,05,34,12.90
2010,08,13,05,35,12.90
2010,08,13,05,36,12.90
2010,08,13,05,37,12.90
2010,08,13,05,38,12.90
2010,08,13,05,39,12.90
2010,08,13,05,40,12.90
2010,08,13,05,41,12.90
2010,08,13,05,42,12.90
2010,08,13,05,43,12.90
2010,08,13,05,44,12.90
2010,08,13,05,45,12.90
2010,08,13,05,46,12.90
2010,08,13,05,47,12.90
2010,08,13,05,48,12.90
2010,08,13,05,49,12.90
2010,08,13,05,50,12.90
2010,08,13,05,51,12.90
2010,08,13,05,52,12.90
2010,08,13,05,53,12.90
2010,08,13,05,54,12.80
2010,08,13,05,55,12.80
2010,08,13,05,56,12.80
2010,08,13,05,57,12.80
2010,08,13,05,58,12.80
2010,08,13,05,59,12.80
2010,08,13,06,00,12.80
2010,08,13,06,01,12.80
2010,08,13,06,02,12.80
2010,08,13,06,03,12.80
2010,08,13,06,04,12.80
2010,08,13,06,05,12.80
2010,08,13,06,06,12.70
2010,08,13,06,07,12.70
2010,08,13,06,08,12.70
2010,08,13,06,09,12.70
2010,08,13,06,10,12.70
2010,08,13,06,11,12.70
2010,08,13,06,12,12.70
2010,08,13,06,13,12.70
2010,08,13,06,14,12.70
2010,08,13,06,15,12.70
2010,08,13,06,16,12.70
2010,08,13,06,17,12.70
2010,08,13,06,18,12.70
2010,08,13,06,19,12.80
2010,08,13,06,20,12.80
2010,08,13,06,21,12.70
2010,08,13,06,22,12.70
2010,08,13,06,23,12.70
2010,08,13,06,24,12.70
2010,08,13,06,25,12.70
2010,08,13,06,26,12.70
2010,08,13,06,27,12.70
2010,08,13,06,28,12.70
2010,08,13,06,29,12.70
2010,08,13,06,30,12.70
2010,08,13,06,31,12.70
2010,08,13,06,32,12.70
2010,08,13,06,33,12.70
2010,08,13,06,34,12.70
2010,08,13,06,35,12.70
2010,08,13,06,36,12.70
2010,08,13,06,37,12.70
2010,08,13,06,38,12.70
2010,08,13,06,39,12.70
2010,08,13,06,40,12.70
2010,08,13,06,41,12.70
2010,08,13,06,42,12.70
2010,08,13,06,43,12.80
2010,08,13,06,44,12.80
2010,08,13,06,45,12.80
2010,08,13,06,46,12.80
2010,08,13,06,47,12.90
2010,08,13,06,48,12.90
2010,08,13,06,49,12.90
2010,08,13,06,50,13.00
2010,08,13,06,51,13.00
2010,08,13,06,52,13.00
2010,08,13,06,53,13.10
2010,08,13,06,54,13.10
2010,08,13,06,55,13.10
2010,08,13,06,56,13.20
2010,08,13,06,57,13.20
2010,08,13,06,58,13.30
2010,08,13,06,59,13.30
2010,08,13,07,00,13.40
2010,08,13,07,01,13.40
2010,08,13,07,02,13.50
2010,08,13,07,03,13.50
2010,08,13,07,04,13.60
2010,08,13,07,05,13.60
2010,08,13,07,06,13.70
2010,08,13,07,07,13.70
2010,08,13,07,08,13.80
2010,08,13,07,09,13.80
2010,08,13,07,10,13.90
2010,08,13,07,11,13.90
2010,08,13,07,12,14.00
2010,08,13,07,13,14.00
2010,08,13,07,14,14.10
2010,08,13,07,15,14.10
2010,08,13,07,16,14.10
2010,08,13,07,17,14.20
2010,08,13,07,18,14.20
2010,08,13,07,19,14.20
2010,08,13,07,20,14.30
2010,08,13,07,21,14.30
2010,08,13,07,22,14.30
2010,08,13,07,23,14.40
2010,08,13,07,24,14.40
2010,08,13,07,25,14.40
2010,08,13,07,26,14.50
2010,08,13,07,27,14.60
2010,08,13,07,28,14.60
2010,08,13,07,29,14.70
2010,08,13,07,30,14.80
2010,08,13,07,31,14.80
2010,08,13,07,32,14.90
2010,08,13,07,33,15.00
2010,08,13,07,34,15.00
2010,08,13,07,35,15.00
2010,08,13,07,36,15.00
2010,08,13,07,37,15.00
2010,08,13,07,38,15.10
2010,08,13,07,39,15.30
2010,08,13,07,40,15.30
2010,08,13,07,41,15.40
2010,08,13,07,42,15.50
2010,08,13,07,43,15.50
2010,08,13,07,44,15.60
2010,08,13,07,45,15.70
2010,08,13,07,46,15.80
2010,08,13,07,47,15.80
2010,08,13,07,48,15.90
2010,08,13,07,49,15.90
2010,08,13,07,50,16.00
2010,08,13,07,51,16.10
2010,08,13,07,52,16.20
2010,08,13,07,53,16.30
2010,08,13,07,54,16.40
2010,08,13,07,55,16.50
2010,08,13,07,56,16.50
2010,08,13,07,57,16.60
2010,08,13,07,58,16.70
2010,08,13,07,59,16.70
2010,08,13,08,00,16.80
2010,08,13,08,01,16.90
2010,08,13,08,02,16.90
2010,08,13,08,03,17.00
2010,08,13,08,04,17.00
2010,08,13,08,05,17.10
2010,08,13,08,06,17.10
2010,08,13,08,07,17.10
2010,08,13,08,08,17.10
2010,08,13,08,09,17.20
2010,08,13,08,10,17.20
2010,08,13,08,11,17.30
2010,08,13,08,12,17.40
2010,08,13,08,13,17.40
2010,08,13,08,14,17.50
2010,08,13,08,15,17.60
2010,08,13,08,16,17.70
2010,08,13,08,17,17.80
2010,08,13,08,18,17.90
2010,08,13,08,19,18.00
2010,08,13,08,20,18.10
2010,08,13,08,21,18.10
2010,08,13,08,22,18.20
2010,08,13,08,23,18.20
2010,08,13,08,24,18.30
2010,08,13,08,25,18.30
2010,08,13,08,26,18.40
2010,08,13,08,27,18.40
2010,08,13,08,28,18.50
2010,08,13,08,29,18.60
2010,08,13,08,30,18.60
2010,08,13,08,31,18.70
2010,08,13,08,32,18.70
2010,08,13,08,33,18.70
2010,08,13,08,34,18.80
2010,08,13,08,35,18.80
2010,08,13,08,36,18.80
2010,08,13,08,37,18.90
2010,08,13,08,38,18.90
2010,08,13,08,39,18.90
2010,08,13,08,40,19.00
2010,08,13,08,41,19.00
2010,08,13,08,42,19.10
2010,08,13,08,43,19.20
2010,08,13,08,44,19.30
2010,08,13,08,45,19.40
2010,08,13,08,46,19.40
2010,08,13,08,47,19.50
2010,08,13,08,48,19.50
2010,08,13,08,49,19.50
2010,08,13,08,50,19.50
2010,08,13,08,51,19.60
2010,08,13,08,52,19.60
2010,08,13,08,53,19.70
2010,08,13,08,54,19.80
2010,08,13,08,55,19.90
2010,08,13,08,56,20.00
2010,08,13,08,57,20.10
2010,08,13,08,58,20.20
2010,08,13,08,59,20.30
2010,08,13,09,00,20.40
2010,08,13,09,01,20.50
2010,08,13,09,02,20.50
2010,08,13,09,03,20.50
2010,08,13,09,04,20.60
2010,08,13,09,05,20.60
2010,08,13,09,06,20.70
2010,08,13,09,07,20.70
2010,08,13,09,08,20.70
2010,08,13,09,09,20.80
2010,08,13,09,10,20.90
2010,08,13,09,11,20.90
2010,08,13,09,12,21.00
2010,08,13,09,13,21.10
2010,08,13,09,14,21.10
2010,08,13,09,15,21.20
2010,08,13,09,16,21.20
2010,08,13,09,17,21.30
2010,08,13,09,18,21.30
2010,08,13,09,19,21.40
2010,08,13,09,20,21.50
2010,08,13,09,21,21.60
2010,08,13,09,22,21.70
2010,08,13,09,23,21.80
2010,08,13,09,24,21.80
2010,08,13,09,25,21.90
2010,08,13,09,26,22.00
2010,08,13,09,27,22.00
2010,08,13,09,28,22.10
2010,08,13,09,29,22.10
2010,08,13,09,30,22.10
2010,08,13,09,31,22.10
2010,08,13,09,32,22.20
2010,08,13,09,33,22.30
2010,08,13,09,34,22.30
2010,08,13,09,35,22.40
2010,08,13,09,36,22.50
2010,08,13,09,37,22.60
2010,08,13,09,38,22.60
2010,08,13,09,39,22.70
2010,08,13,09,40,22.70
2010,08,13,09,41,22.80
2010,08,13,09,42,22.90
2010,08,13,09,43,23.00
2010,08,13,09,44,23.10
2010,08,13,09,45,23.20
2010,08,13,09,46,23.30
2010,08,13,09,47,23.40
2010,08,13,09,48,23.50
2010,08,13,09,49,23.60
2010,08,13,09,50,23.60
2010,08,13,09,51,23.70
2010,08,13,09,52,23.70
2010,08,13,09,53,23.60
2010,08,13,09,54,23.50
2010,08,13,09,55,23.40
2010,08,13,09,56,23.40
2010,08,13,09,57,23.30
2010,08,13,09,58,23.30
2010,08,13,09,59,23.30
2010,08,13,10,00,23.30
2010,08,13,10,01,23.30
2010,08,13,10,02,23.30
2010,08,13,10,03,23.30
2010,08,13,10,04,23.30
2010,08,13,10,05,23.40
2010,08,13,10,06,23.40
2010,08,13,10,07,23.50
2010,08,13,10,08,23.50
2010,08,13,10,09,23.60
2010,08,13,10,10,23.60
2010,08,13,10,11,23.70
2010,08,13,10,12,23.70
2010,08,13,10,13,23.80
2010,08,13,10,14,23.80
2010,08,13,10,15,23.80
2010,08,13,10,16,23.80
2010,08,13,10,17,23.80
2010,08,13,10,18,23.90
2010,08,13,10,19,24.00
2010,08,13,10,20,24.00
2010,08,13,10,21,24.10
2010,08,13,10,22,24.20
2010,08,13,10,23,24.30
2010,08,13,10,24,24.30
2010,08,13,10,25,24.40
2010,08,13,10,26,24.50
2010,08,13,10,27,24.50
2010,08,13,10,28,24.60
2010,08,13,10,29,24.70
2010,08,13,10,30,24.70
2010,08,13,10,31,24.70
2010,08,13,10,32,24.70
2010,08,13,10,33,24.70
2010,08,13,10,34,24.80
2010,08,13,10,35,24.80
2010,08,13,10,36,24.90
2010,08,13,10,37,24.90
2010,08,13,10,38,24.90
2010,08,13,10,39,24.80
2010,08,13,10,40,24.70
2010,08,13,10,41,24.50
2010,08,13,10,42,24.30
2010,08,13,10,43,24.10
2010,08,13,10,44,24.10
2010,08,13,10,45,24.10
2010,08,13,10,46,24.20
2010,08,13,10,47,24.20
2010,08,13,10,48,24.20
2010,08,13,10,49,24.20
2010,08,13,10,50,24.20
2010,08,13,10,51,24.10
2010,08,13,10,52,24.10
2010,08,13,10,53,24.10
2010,08,13,10,54,24.00
2010,08,13,10,55,24.00
2010,08,13,10,56,23.90
2010,08,13,10,57,24.00
2010,08,13,10,58,23.90
2010,08,13,10,59,23.90
2010,08,13,11,00,23.90
2010,08,13,11,01,23.90
2010,08,13,11,02,23.90
2010,08,13,11,03,24.00
2010,08,13,11,04,24.00
2010,08,13,11,05,24.10
2010,08,13,11,06,24.10
2010,08,13,11,07,24.20
2010,08,13,11,08,24.30
2010,08,13,11,09,24.50
2010,08,13,11,10,24.70
2010,08,13,11,11,24.90
2010,08,13,11,12,25.10
2010,08,13,11,13,25.20
2010,08,13,11,14,25.40
2010,08,13,11,15,25.50
2010,08,13,11,16,25.70
2010,08,13,11,17,25.90
2010,08,13,11,18,26.00
2010,08,13,11,19,26.20
2010,08,13,11,20,26.30
2010,08,13,11,21,26.40
2010,08,13,11,22,26.50
2010,08,13,11,23,26.60
2010,08,13,11,24,26.70
2010,08,13,11,25,26.80
2010,08,13,11,26,26.90
2010,08,13,11,27,27.00
2010,08,13,11,28,27.10
2010,08,13,11,29,27.00
2010,08,13,11,30,26.90
2010,08,13,11,31,26.80
2010,08,13,11,32,26.80
2010,08,13,11,33,26.80
2010,08,13,11,34,26.80
2010,08,13,11,35,26.80
2010,08,13,11,36,26.80
2010,08,13,11,37,26.80
2010,08,13,11,38,26.90
2010,08,13,11,39,27.00
2010,08,13,11,40,27.00
2010,08,13,11,41,27.10
2010,08,13,11,42,27.10
2010,08,13,11,43,27.10
2010,08,13,11,44,27.10
2010,08,13,11,45,27.20
2010,08,13,11,46,27.20
2010,08,13,11,47,27.20
2010,08,13,11,48,27.10
2010,08,13,11,49,27.10
2010,08,13,11,50,27.00
2010,08,13,11,51,27.00
2010,08,13,11,52,27.10
2010,08,13,11,53,27.10
2010,08,13,11,54,27.20
2010,08,13,11,55,27.20
2010,08,13,11,56,27.30
2010,08,13,11,57,27.40
2010,08,13,11,58,27.40
2010,08,13,11,59,27.60
2010,08,13,12,00,27.70
2010,08,13,12,01,27.80
2010,08,13,12,02,27.90
2010,08,13,12,03,28.00
2010,08,13,12,04,28.10
2010,08,13,12,05,28.20
2010,08,13,12,06,28.30
2010,08,13,12,07,28.50
2010,08,13,12,08,28.50
2010,08,13,12,09,28.50
2010,08,13,12,10,28.40
2010,08,13,12,11,28.30
2010,08,13,12,12,28.30
2010,08,13,12,13,28.20
2010,08,13,12,14,28.20
2010,08,13,12,15,28.20
2010,08,13,12,16,28.20
2010,08,13,12,17,28.20
2010,08,13,12,18,28.20
2010,08,13,12,19,28.20
2010,08,13,12,20,28.30
2010,08,13,12,21,28.30
2010,08,13,12,22,28.40
2010,08,13,12,23,28.50
2010,08,13,12,24,28.50
2010,08,13,12,25,28.60
2010,08,13,12,26,28.60
2010,08,13,12,27,28.70
2010,08,13,12,28,28.70
2010,08,13,12,29,28.70
2010,08,13,12,30,28.80
2010,08,13,12,31,28.80
2010,08,13,12,32,28.80
2010,08,13,12,33,28.80
2010,08,13,12,34,28.80
2010,08,13,12,35,28.80
2010,08,13,12,36,28.80
2010,08,13,12,37,28.70
2010,08,13,12,38,28.60
2010,08,13,12,39,28.50
2010,08,13,12,40,28.50
2010,08,13,12,41,28.40
2010,08,13,12,42,28.30
2010,08,13,12,43,28.30
2010,08,13,12,44,28.30
2010,08,13,12,45,28.40
2010,08,13,12,46,28.50
2010,08,13,12,47,28.60
2010,08,13,12,48,28.50
2010,08,13,12,49,28.50
2010,08,13,12,50,28.50
2010,08,13,12,51,28.50
2010,08,13,12,52,28.60
2010,08,13,12,53,28.70
2010,08,13,12,54,28.80
2010,08,13,12,55,29.00
2010,08,13,12,56,29.10
2010,08,13,12,57,29.20
2010,08,13,12,58,29.20
2010,08,13,12,59,29.40
2010,08,13,13,00,29.50
2010,08,13,13,01,29.60
2010,08,13,13,02,29.80
2010,08,13,13,03,29.90
2010,08,13,13,04,29.90
2010,08,13,13,05,30.00
2010,08,13,13,06,30.10
2010,08,13,13,07,30.10
2010,08,13,13,08,30.10
2010,08,13,13,09,30.00
2010,08,13,13,10,29.90
2010,08,13,13,11,29.90
2010,08,13,13,12,29.80
2010,08,13,13,13,29.80
2010,08,13,13,14,29.90
2010,08,13,13,15,29.90
2010,08,13,13,16,30.00
2010,08,13,13,17,30.00
2010,08,13,13,18,30.00
2010,08,13,13,19,29.90
2010,08,13,13,20,29.90
2010,08,13,13,21,29.90
2010,08,13,13,22,29.90
2010,08,13,13,23,29.90
2010,08,13,13,24,29.90
2010,08,13,13,25,29.80
2010,08,13,13,26,29.80
2010,08,13,13,27,29.80
2010,08,13,13,28,29.80
2010,08,13,13,29,29.80
2010,08,13,13,30,29.80
2010,08,13,13,31,29.90
2010,08,13,13,32,29.90
2010,08,13,13,33,29.90
2010,08,13,13,34,29.90
2010,08,13,13,35,29.90
2010,08,13,13,36,29.90
2010,08,13,13,37,29.90
2010,08,13,13,38,29.90
2010,08,13,13,39,30.00
2010,08,13,13,40,30.10
2010,08,13,13,41,30.10
2010,08,13,13,42,30.00
2010,08,13,13,43,30.00
2010,08,13,13,44,29.80
2010,08,13,13,45,29.80
2010,08,13,13,46,29.80
2010,08,13,13,47,29.90
2010,08,13,13,48,29.90
2010,08,13,13,49,30.00
2010,08,13,13,50,30.10
2010,08,13,13,51,30.20
2010,08,13,13,52,30.30
2010,08,13,13,53,30.30
2010,08,13,13,54,30.40
2010,08,13,13,55,30.60
2010,08,13,13,56,30.60
2010,08,13,13,57,30.70
2010,08,13,13,58,30.70
2010,08,13,13,59,30.70
2010,08,13,14,00,30.60
2010,08,13,14,01,30.60
2010,08,13,14,02,30.50
2010,08,13,14,03,30.40
2010,08,13,14,04,30.40
2010,08,13,14,05,30.30
2010,08,13,14,06,30.30
2010,08,13,14,07,30.30
2010,08,13,14,08,30.40
2010,08,13,14,09,30.50
2010,08,13,14,10,30.60
2010,08,13,14,11,30.60
2010,08,13,14,12,30.50
2010,08,13,14,13,30.50
2010,08,13,14,14,30.40
2010,08,13,14,15,30.30
2010,08,13,14,16,30.30
2010,08,13,14,17,30.30
2010,08,13,14,18,30.30
2010,08,13,14,19,30.30
2010,08,13,14,20,30.30
2010,08,13,14,21,30.30
2010,08,13,14,22,30.30
2010,08,13,14,23,30.30
2010,08,13,14,24,30.30
2010,08,13,14,25,30.30
2010,08,13,14,26,30.30
2010,08,13,14,27,30.30
2010,08,13,14,28,30.30
2010,08,13,14,29,30.40
2010,08,13,14,30,30.30
2010,08,13,14,31,30.30
2010,08,13,14,32,30.30
2010,08,13,14,33,30.20
2010,08,13,14,34,30.20
2010,08,13,14,35,30.20
2010,08,13,14,36,30.20
2010,08,13,14,37,30.10
2010,08,13,14,38,30.00
2010,08,13,14,39,29.90
2010,08,13,14,40,29.70
2010,08,13,14,41,29.60
2010,08,13,14,42,29.60
2010,08,13,14,43,29.60
2010,08,13,14,44,29.60
2010,08,13,14,45,29.60
2010,08,13,14,46,29.60
2010,08,13,14,47,29.70
2010,08,13,14,48,29.60
2010,08,13,14,49,29.60
2010,08,13,14,50,29.60
2010,08,13,14,51,29.60
2010,08,13,14,52,29.60
2010,08,13,14,53,29.50
2010,08,13,14,54,29.40
2010,08,13,14,55,29.40
2010,08,13,14,56,29.50
2010,08,13,14,57,29.60
2010,08,13,14,58,29.70
2010,08,13,14,59,29.80
2010,08,13,15,00,29.80
2010,08,13,15,01,29.90
2010,08,13,15,02,29.90
2010,08,13,15,03,29.90
2010,08,13,15,04,29.90
2010,08,13,15,05,29.90
2010,08,13,15,06,29.90
2010,08,13,15,07,29.90
2010,08,13,15,08,29.90
2010,08,13,15,09,30.10
2010,08,13,15,10,30.10
2010,08,13,15,11,30.10
2010,08,13,15,12,30.20
2010,08,13,15,13,30.20
2010,08,13,15,14,30.30
2010,08,13,15,15,30.30
2010,08,13,15,16,30.30
2010,08,13,15,17,30.30
2010,08,13,15,18,30.30
2010,08,13,15,19,30.40
2010,08,13,15,20,30.40
2010,08,13,15,21,30.40
2010,08,13,15,22,30.40
2010,08,13,15,23,30.40
2010,08,13,15,24,30.40
2010,08,13,15,25,30.50
2010,08,13,15,26,30.50
2010,08,13,15,27,30.60
2010,08,13,15,28,30.70
2010,08,13,15,29,30.70
2010,08,13,15,30,30.70
2010,08,13,15,31,30.70
2010,08,13,15,32,30.70
2010,08,13,15,33,30.60
2010,08,13,15,34,30.50
2010,08,13,15,35,30.40
2010,08,13,15,36,30.30
2010,08,13,15,37,30.20
2010,08,13,15,38,30.20
2010,08,13,15,39,30.10
2010,08,13,15,40,30.20
2010,08,13,15,41,30.20
2010,08,13,15,42,30.30
2010,08,13,15,43,30.40
2010,08,13,15,44,30.40
2010,08,13,15,45,30.50
2010,08,13,15,46,30.60
2010,08,13,15,47,30.60
2010,08,13,15,48,30.70
2010,08,13,15,49,30.70
2010,08,13,15,50,30.80
2010,08,13,15,51,30.90
2010,08,13,15,52,31.00
2010,08,13,15,53,31.10
2010,08,13,15,54,31.20
2010,08,13,15,55,31.20
2010,08,13,15,56,31.20
2010,08,13,15,57,31.10
2010,08,13,15,58,31.10
2010,08,13,15,59,31.00
2010,08,13,16,00,31.00
2010,08,13,16,01,30.90
2010,08,13,16,02,30.90
2010,08,13,16,03,30.90
2010,08,13,16,04,30.90
2010,08,13,16,05,30.90
2010,08,13,16,06,30.90
2010,08,13,16,07,31.00
2010,08,13,16,08,31.10
2010,08,13,16,09,31.10
2010,08,13,16,10,31.20
2010,08,13,16,11,31.20
2010,08,13,16,12,31.10
2010,08,13,16,13,31.10
2010,08,13,16,14,31.10
2010,08,13,16,15,31.10
2010,08,13,16,16,31.20
2010,08,13,16,17,31.20
2010,08,13,16,18,31.20
2010,08,13,16,19,31.30
2010,08,13,16,20,31.40
2010,08,13,16,21,31.60
2010,08,13,16,22,31.70
2010,08,13,16,23,31.80
2010,08,13,16,24,31.90
2010,08,13,16,25,32.00
2010,08,13,16,26,32.10
2010,08,13,16,27,32.20
2010,08,13,16,28,32.30
2010,08,13,16,29,32.30
2010,08,13,16,30,32.30
2010,08,13,16,31,32.40
2010,08,13,16,32,32.40
2010,08,13,16,33,32.40
2010,08,13,16,34,32.40
2010,08,13,16,35,32.40
2010,08,13,16,36,32.40
2010,08,13,16,37,32.40
2010,08,13,16,38,32.50
2010,08,13,16,39,32.60
2010,08,13,16,40,32.60
2010,08,13,16,41,32.60
2010,08,13,16,42,32.60
2010,08,13,16,43,32.50
2010,08,13,16,44,32.40
2010,08,13,16,45,32.40
2010,08,13,16,46,32.30
2010,08,13,16,47,32.20
2010,08,13,16,48,32.20
2010,08,13,16,49,32.20
2010,08,13,16,50,32.10
2010,08,13,16,51,32.00
2010,08,13,16,52,31.90
2010,08,13,16,53,31.80
2010,08,13,16,54,31.80
2010,08,13,16,55,31.90
2010,08,13,16,56,31.90
2010,08,13,16,57,31.90
2010,08,13,16,58,31.80
2010,08,13,16,59,31.80
2010,08,13,17,00,31.80
2010,08,13,17,01,31.80
2010,08,13,17,02,31.80
2010,08,13,17,03,31.80
2010,08,13,17,04,31.80
2010,08,13,17,05,31.80
2010,08,13,17,06,31.90
2010,08,13,17,07,31.90
2010,08,13,17,08,31.90
2010,08,13,17,09,31.90
2010,08,13,17,10,31.90
2010,08,13,17,11,31.90
2010,08,13,17,12,32.00
2010,08,13,17,13,32.00
2010,08,13,17,14,32.00
2010,08,13,17,15,32.00
2010,08,13,17,16,31.90
2010,08,13,17,17,31.90
2010,08,13,17,18,31.90
2010,08,13,17,19,32.00
2010,08,13,17,20,32.00
2010,08,13,17,21,32.10
2010,08,13,17,22,32.10